TimeEST,TemperatureF,Dew PointF,Humidity,Sea Level PressureIn,VisibilityMPH,Wind Direction,Wind SpeedMPH,Gust SpeedMPH,PrecipitationIn,Events,Conditions,WindDirDegrees,DateUTC
12:55 AM,43.3,28.2,55,30.11,10.0,SW,11.5,-,N/A,,Clear,230,2013-01-24 05:55:00
1:55 AM,44.6,29.8,56,30.08,10.0,SW,13.8,-,N/A,,Clear,230,2013-01-24 06:55:00
2:55 AM,46.0,31.5,57,30.06,10.0,WSW,15.0,-,N/A,,Clear,240,2013-01-24 07:55:00
3:55 AM,46.0,33.3,61,30.04,10.0,WSW,15.0,-,N/A,,Clear,240,2013-01-24 08:55:00
4:55 AM,47.1,34.3,61,30.04,10.0,WSW,16.1,-,N/A,,Clear,250,2013-01-24 09:55:00
5:55 AM,46.2,35.2,66,30.05,10.0,SW,12.7,-,N/A,,Clear,230,2013-01-24 10:55:00
6:55 AM,44.1,35.1,71,30.06,10.0,SW,9.2,-,N/A,,Clear,230,2013-01-24 11:55:00
7:55 AM,44.4,35.4,71,30.09,10.0,WSW,8.1,-,N/A,,Clear,240,2013-01-24 12:55:00
8:55 AM,48.7,36.1,62,30.11,10.0,WSW,11.5,-,N/A,,Clear,240,2013-01-24 13:55:00
9:55 AM,53.2,36.5,53,30.13,10.0,West,8.1,-,N/A,,Clear,260,2013-01-24 14:55:00
10:55 AM,58.6,29.7,33,30.14,10.0,WNW,13.8,23.0,N/A,,Clear,290,2013-01-24 15:55:00
11:55 AM,59.4,28.6,31,30.15,10.0,NNW,8.1,-,N/A,,Clear,330,2013-01-24 16:55:00
12:55 PM,59.2,30.7,34,30.16,10.0,NW,12.7,-,N/A,,Partly Cloudy,320,2013-01-24 17:55:00
1:55 PM,54.5,26.2,34,30.19,10.0,NNE,12.7,-,N/A,,Mostly Cloudy,30,2013-01-24 18:55:00
2:55 PM,53.4,21.2,28,30.21,10.0,NE,17.3,-,N/A,,Clear,40,2013-01-24 19:55:00
3:55 PM,51.8,17.6,26,30.24,10.0,NE,13.8,-,N/A,,Clear,50,2013-01-24 20:55:00
4:55 PM,48.6,12.6,24,30.29,10.0,NE,18.4,24.2,N/A,,Clear,40,2013-01-24 21:55:00
5:55 PM,43.2,8.8,25,30.34,10.0,NE,18.4,26.5,N/A,,Clear,40,2013-01-24 22:55:00
6:54 PM,39.2,6.8,26,30.39,10.0,NE,16.1,24.2,N/A,,Light Drizzle,50,2013-01-24 23:54:00
6:55 PM,39.4,7.2,26,30.39,10.0,NE,15.0,24.2,0.00,,Light Drizzle,50,2013-01-24 23:55:00
7:04 PM,39.2,6.8,26,30.40,10.0,ENE,18.4,24.2,N/A,,Clear,60,2013-01-25 00:04:00
7:55 PM,36.3,3.6,25,30.43,10.0,NE,13.8,-,0.00,,Clear,40,2013-01-25 00:55:00
8:55 PM,34.2,2.1,26,30.45,10.0,ENE,13.8,-,N/A,,Clear,60,2013-01-25 01:55:00
9:55 PM,32.0,2.7,29,30.48,10.0,ENE,8.1,-,N/A,,Clear,60,2013-01-25 02:55:00
10:55 PM,29.8,2.8,32,30.49,10.0,ENE,8.1,-,N/A,,Clear,60,2013-01-25 03:55:00
11:55 PM,29.5,4.3,34,30.48,10.0,ENE,5.8,-,N/A,,Clear,70,2013-01-25 04:55:00